Regional Weather Roundup
Issued by NWS

Home | Current Version | Previous Version | Graphics & Text | Print | Product List | Glossary On
Versions: 1 2 3 4 5 6 7 8 9 10 11 12 13 14 15 16 17 18 19 20 21 22 23 24 25 26 27 28 29 30 31 32 33 34 35 36 37 38 39 40 41 42 43 44 45 46 47 48 49 50
000
ASUS43 KMKX 290500
RWRWI

WISCONSIN REGIONAL WEATHER ROUNDUP
NATIONAL WEATHER SERVICE MILWAUKEE/SULLIVAN WI
1200 AM CDT SUN MAY 29 2016

NOTE: "FAIR" INDICATES FEW OR NO CLOUDS BELOW 12,000 FEET WITH NO
SIGNIFICANT WEATHER AND/OR OBSTRUCTIONS TO VISIBILITY.

WIZ001-002-006>008-014>016-023>028-290600-
NORTHWEST WISCONSIN

CITY           SKY/WX    TMP DP  RH WIND       PRES   REMARKS
SUPERIOR ARPT  FOG       50  50 100 CALM      29.81S VSB 1/2
ASHLAND        CLOUDY    51  50  96 N6        29.80S
HAYWARD        CLOUDY    60  59  96 CALM      29.80R
SIREN          CLOUDY    60  59  97 NW3       29.81R
CUMBERLAND     CLOUDY    61  59  94 CALM      29.81R
RICE LAKE      CLOUDY    62  60  94 CALM      29.82R
CHETEK         FOG       61  61 100 CALM      29.80S VSB 1
LADYSMITH      CLOUDY    61  60  96 CALM      29.82R
EAU CLAIRE     NOT AVBL
MENOMONIE      MOCLDY    62  62  99 S5        29.82R
NEW RICHMOND   MOCLDY    61  61  99 W3        29.82R
OSCEOLA        CLOUDY    62  62 100 CALM      29.83S
$$

WIZ003>005-009-010-017-018-290600-
NORTH CENTRAL WISCONSIN

CITY           SKY/WX    TMP DP  RH WIND       PRES   REMARKS
MANITOWISH WTR NOT AVBL
ARBOR VITAE    MOCLDY    62  59  91 N3        29.84S
WOODRUFF       MOCLDY    62  59  91 N3        29.84S
RHINELANDER    CLOUDY    64  61  90 W3        29.84R
EAGLE RIVER      N/A     64  63  99 CALM      29.83R
LAND O LAKES   RAIN      63  63 100 E6        29.85R
PHILLIPS       MOCLDY    59  59 100 CALM      29.80R
TOMAHAWK       CLOUDY    63  60  92 CALM      29.83R
MEDFORD        MOCLDY    61  61 100 S5        29.82R
MERRILL        CLOUDY   N/A N/A N/A S7        29.83R
$$

WIZ029-030-035-036-043>047-290600-
CENTRAL WISCONSIN

CITY           SKY/WX    TMP DP  RH WIND       PRES   REMARKS
WAUSAU         MOCLDY    67  61  81 S10       29.82R
MOSINEE        PTCLDY    63  63 100 S8        29.85R
MARSHFIELD     CLOUDY    65  60  84 S10       29.83R
STEVENS POINT  PTCLDY    64  61  90 S8        29.86R
WAUPACA        CLOUDY    65  64  96 S7        29.87S
WAUTOMA        CLOUDY    65  63  93 S7        29.87F
WISC RAPIDS    MOCLDY    66  61  84 S9        29.86R
CAMP DOUGLAS   NOT AVBL
$$

WIZ011>013-019>022-031-037>040-048>050-290600-
NORTHEAST WISCONSIN

CITY           SKY/WX    TMP DP  RH WIND       PRES   REMARKS
ANTIGO         CLOUDY    62  62  99 S9        29.85R
SHAWANO        CLOUDY    65  61  88 S6        29.86S
OCONTO         CLOUDY    63  63 100 S6        29.86R
STURGEON BAY   NOT AVBL
GREEN BAY      CLOUDY    65  61  87 S9        29.86F
MANITOWOC      NOT AVBL
APPLETON       CLOUDY    63  63 100 S10       29.86S
CLINTONVILLE   CLOUDY    63  61  94 S8        29.85F
OSHKOSH        CLOUDY    64  61  90 S10       29.88F
$$

WIZ032>034-041-042-053>061-290600-
SOUTHWEST WISCONSIN

CITY           SKY/WX    TMP DP  RH WIND       PRES   REMARKS
LA CROSSE      MOCLDY    65  63  93 S3        29.83R
SPARTA         MOCLDY    64  63  95 S6        29.86R
VIROQUA        PTCLDY    64  63  96 S6        29.87R
BOSCOBEL       PTCLDY    65  61  87 CALM      29.87R
PRAIRIE DU CHI CLOUDY    67  59  76 CALM      29.86R
PLATTEVILLE    PTCLDY    65  62  90 SE6       29.91R
$$

WIZ056-057-062-063-064-067-068-290600-
SOUTH CENTRAL WISCONSIN

CITY           SKY/WX    TMP DP  RH WIND       PRES   REMARKS
REEDSBURG      CLOUDY    65  64  94 S7        29.88R
BARABOO/DELLS  CLOUDY    65  62  90 S9        29.89S
LONE ROCK      NOT AVBL
MINERAL POINT  MOCLDY    64  63  94 SE6       29.91R
MADISON        CLOUDY    68  63  84 S8        29.90S
MIDDLETON      CLOUDY    67  64  89 S5        29.91R
WATERTOWN      CLOUDY    65  65 100 S6        29.92R
MONROE         CLOUDY    68  63  83 S8        29.93R
JANESVILLE     CLOUDY    68  66  94 SE6       29.93R
$$

WIZ051-052-058>065-066-070>072-290600-
SOUTHEAST WISCONSIN

CITY           SKY/WX    TMP DP  RH WIND       PRES   REMARKS
MILWAUKEE      LGT RAIN  66  63  90 S8        29.94S
WAUKESHA       LGT RAIN  63  61  94 S8        29.95S
MILWAUKEE/TIMM LGT RAIN  64  61  88 S9        29.94F
RACINE         LGT RAIN  65  62  90 E5        29.96S
BURLINGTON     HVY RAIN  63  62  96 S7        29.94F
KENOSHA        MOCLDY    65  62  90 S5        29.94F
FOND DU LAC    CLOUDY    65  61  87 S10       29.90S
SHEBOYGAN      PTCLDY    63  60  90 S8        29.92S
WEST BEND      CLOUDY    63  61  94 S7        29.92F
JUNEAU         CLOUDY    64  61  92 SE7       29.93R
$$

LSZ147-162-290600-
LAKE SUPERIOR

STATION/POSITION TIME  TEMP    WIND        PRES    WAVE
                       AIR SEA DIR/SP/G            HT/PER
                 (UTC) (F)     (DEG/KT/KT) (MB)    (FT/S)
W MID LAKE BUOY  0350   42 38  160/  6/ 10 1010.0R   1/ 3
DEVILS ISLAND    0400   45      60/  2/  2 1009.7F
PORT WING        0400   44      CALM  /  2 1009.5S
SAXON HARBOR     0440   49     330/  4/  7 1008.8F
$$

LMZ867-665-643>646-290600-
LAKE MICHIGAN

STATION/POSITION TIME  TEMP    WIND        PRES    WAVE
                       AIR SEA DIR/SP/G            HT/PER
                 (UTC) (F)     (DEG/KT/KT) (MB)    (FT/S)
CHAMBERS ISLAND  0440   66     140/  7/ 15 1011.2R
N MID LAKE BUOY  0350   52 46  190/ 12/ 14 1011.9R   3/ 6
NORTHPORT PIER   0400   58     160/  3/ 10 1011.2S
SISTER BAY       0420   60     160/ 12/ 15   N/A
ALGOMA LAKESHORE 0317          220/  9/ 11   N/A
KEWAUNEE LAKESHO 0400   61     170/  9/ 11 1012.1R
SHEBOYGAN LAKESH 0400   60     170/ 14/ 16 1013.5S
PORT WASHINGTON  0400   62     230/  6/  7 1014.2F
S MID LAKE BUOY  0350   58 50  180/ 12/ 14 1013.7R   2/ 4
KENOSHA   LAKESH 0400   66     210/ 11/ 17 1014.2S
$$

TC  - TEMPERATURE IN CELSIUS
VSB - VISIBILITY IN STATUTE MILES
WCI - WIND CHILL INDEX
HX  - HEAT INDEX




USA.gov is the U.S. government's official web portal to all federal, state and local government web resources and services.